STARLINK-35254 (65674 NORAD) Tracking and Keplerian Element Data

This shows tracking and keplerian element data for the satellite.

Feedback or suggestion? Click here.




ElementValue
Catalog65674
NameSTARLINK-35254
Epoch Orbit1507
Epoch Day354.11070733
Epoch Year2025
RAAN35.7161
Inclination97.6053
Eccentricity0.0001996
Argument of Perigee88.8808
Mean Anonmoly271.2648
Mean Motion15.05650418
Decay Rate1.66E-05
L11 65674U 25211Y 25354.11070733 .00001660 00000+0 11920-3 0 9998
L22 65674 97.6053 35.7161 0001996 88.8808 271.2648 15.05650418 15076



Live tracking and technical data element details for STARLINK-35254 (NORAD 65674). STARLINK-35254 can be tracked NOW for your location showing map with azimuth and elevation plus other details from your city location.







IsCatalogInMostPopularTable: catalog: 65674, numindb: 13
Update: records affected: 1



GetName: 65674 STARLINK-35254

Hit Count: updated at: Mon, 20 Apr 2026 10:47:26 GMT